This is the latest recevied weather packets stored in our database for station/object K0FJ-1. If no packets are shown the sender has not sent any weather packets the latest 10 day(s).
| Time | Temp. | Humidity | Pressure | Rain* | Wind** | Luminosity | Snow |
|---|---|---|---|---|---|---|---|
| 1778106604 | 8.89° C | 73% | 1019.3 hPa | 0 mm | - | - | - |
| 1778106303 | 8.89° C | 75% | 1019.3 hPa | 0 mm | - | - | - |
| 1778106003 | 8.89° C | 73% | 1019.2 hPa | 0 mm | - | - | - |
| 1778105703 | 8.89° C | 74% | 1019.4 hPa | 0 mm | - | - | - |
| 1778105403 | 9.44° C | 73% | 1019.4 hPa | 0 mm | - | - | - |
| 1778105103 | 10° C | 71% | 1019.3 hPa | 0 mm | - | - | - |
| 1778104805 | 10° C | 71% | 1019.4 hPa | 0 mm | - | - | - |
| 1778104504 | 10° C | 72% | 1019.4 hPa | 0 mm | - | - | - |
| 1778104203 | 10.56° C | 68% | 1019.5 hPa | 0 mm | - | - | - |
| 1778103903 | 10.56° C | 71% | 1019.5 hPa | 0 mm | - | - | - |
| 1778103603 | 10.56° C | 68% | 1019.6 hPa | 0 mm | - | - | - |
| 1778103303 | 10.56° C | 69% | 1019.5 hPa | 0 mm | - | - | - |
| 1778103004 | 10.56° C | 69% | 1019.7 hPa | 0 mm | - | - | - |
| 1778102704 | 10.56° C | 70% | 1019.8 hPa | 0 mm | - | - | - |
| 1778102403 | 10.56° C | 73% | 1019.7 hPa | 0 mm | - | - | - |
| 1778102103 | 10.56° C | 72% | 1019.9 hPa | 0 mm | - | - | - |
| 1778101805 | 10° C | 72% | 1019.8 hPa | 0 mm | - | - | - |
| 1778101503 | 10° C | 74% | 1020 hPa | 0 mm | - | - | - |
| 1778101203 | 10° C | 75% | 1020 hPa | 0 mm | - | - | - |
| 1778100903 | 10° C | 74% | 1020 hPa | 0 mm | - | - | - |
| 1778100603 | 10° C | 75% | 1020.1 hPa | 0 mm | - | - | - |
| 1778100304 | 9.44° C | 76% | 1020.1 hPa | 0 mm | - | - | - |
| 1778100003 | 9.44° C | 78% | 1020.2 hPa | 0 mm | - | - | - |
| 1778099704 | 9.44° C | 78% | 1020.1 hPa | 0 mm | - | - | - |
| 1778099403 | 8.89° C | 78% | 1020.2 hPa | 0 mm | - | - | - |
* Rain latest hour (hover to see other rain measurements)
** Current wind speed in m/s (hover to see current wind gust speed)